パンスターズ彗星

P/2017 R1 ( PanSTARRS )

English version
Home page
Updated on March 3, 2018

---------------------------------------------------------------------

・ プロフィール

発見日 2017年9月14日
発見光度 21.2等
発見者 Pan-STARRS 1 telescope (Haleakala)

・ 写真集

・ 軌道要素

Epoch 2017 Mar. 28.0 TT = JDT 2457840.5
T 2017 Apr. 8.12084 TT                                  MPCW
q   3.3272671            (2000.0)            P               Q
n   0.11738064     Peri.  178.36329     +0.78820281     +0.61484000
a   4.1311574      Node   143.65299     -0.56514164     +0.74025381
e   0.1945920      Incl.    2.57338     -0.24362114     +0.27202220
P   8.40
From 63 observations 2017 July 30-2018 Jan. 6, mean residual 0".3.

・ 光度変化

        m1 = 13.5 + 5 logΔ + 10.0 log r

---------------------------------------------------------------------

軌道要素はM.P.E.C. 2018-B155に掲載されたものです。
光度グラフはComet for Windowsで作成したものです。

---------------------------------------------------------------------

Copyright(C) Seiichi Yoshida (comet@aerith.net). All rights reserved.